{"data":{"norad_id":49771,"intl_designator":"2021-115AZ","name":"STARLINK-3201","alt_names":[],"object_type":"PAYLOAD","status":"ACTIVE","operator":null,"country":"US","launch_date":"2021-12-02","launch_site_code":"AFETR","launch_vehicle":null,"mission":null,"orbit_class":"UNKNOWN","rcs_meters":null,"size_class":null,"mass_kg":null,"dimensions":null,"purposes":["comms"],"wikipedia_slug":null,"has_3d_model":false,"image_url":null,"decayed_at":null,"tle_current":{"epoch":"2026-09-19T22:01:17.980608Z","epoch_age_seconds":95600,"freshness":"FRESH","line1":"1 49771U 21115AZ  26262.91756922  .00009513  00000+0  29285-3 0  9993","line2":"2 49771  53.1615 332.1618 0000921  88.0100 272.1008 15.34341109265200","mean_motion":15.34341109,"eccentricity":9.21e-5,"inclination_deg":53.1615,"raan_deg":332.1618,"arg_perigee_deg":88.01,"mean_anomaly_deg":272.1008,"bstar":0.00029285,"rev_number":26520,"period_min":93.851360141065,"perigee_km":462.24822476083,"apogee_km":463.50833977583,"semimajor_km":6841.0152822683,"source":"CELESTRAK","updated_at":"2026-09-20T09:00:39.412972Z"}}}